Location: Peebles
(55.6412°N, 3.1714°W)
Time: 04:59:46
(UTC+00:00)

DMSP B5D2-2 - Visible Passes

Search period start: 27 January 2022 00:00
Search period end: 06 February 2022 00:00
Orbit: 790 x 805 km, 98.3° (Epoch: 26 January)

Date Brightness Start Highest point End Pass type
(mag) Time Alt. Az. Time Alt. Az. Time Alt. Az.
27 Jan 6.4 03:59:28 10° E 04:03:20 21° NE 04:07:13 10° N visible
27 Jan 4.1 05:37:05 10° SSE 05:42:22 85° ENE 05:47:42 10° NNW visible
27 Jan 5.4 07:18:56 10° SW 07:22:45 20° W 07:26:36 10° NW visible
27 Jan 5.3 17:43:57 10° NE 17:47:49 20° E 17:51:40 10° SE visible
27 Jan 4.1 19:22:51 10° NNE 19:28:11 85° WNW 19:33:29 10° SSW visible
27 Jan 6.4 21:03:20 10° N 21:07:14 21° NW 21:11:05 10° W visible
28 Jan 6.8 03:33:30 10° E 03:36:26 15° NE 03:39:23 10° N visible
28 Jan 4.7 05:09:59 10° SE 05:15:07 57° ENE 05:20:19 10° N visible
28 Jan 4.8 06:50:30 10° SSW 06:55:07 30° W 06:59:47 10° NNW visible
28 Jan 5.8 17:17:46 10° NE 17:20:05 13° E 17:22:24 10° ESE visible
28 Jan 4.0 18:55:34 10° NNE 19:00:51 64° ESE 19:06:06 10° S visible
28 Jan 5.8 20:35:41 10° N 20:40:14 30° WNW 20:44:45 10° WSW visible
29 Jan 7.1 03:08:17 10° NE 03:09:37 11° NE 03:10:58 10° NNE visible
29 Jan 5.4 04:43:09 10° SE 04:47:59 38° ENE 04:52:50 10° N visible
29 Jan 4.3 06:22:32 10° S 06:27:36 47° W 06:32:43 10° NNW visible
29 Jan 4.5 18:28:24 10° NNE 18:33:25 41° E 18:38:22 10° SSE visible
29 Jan 5.2 20:08:10 10° N 20:13:09 43° WNW 20:18:07 10° SW visible
29 Jan 7.0 21:49:36 10° NNW 21:51:36 12° NW 21:53:37 10° WNW visible
30 Jan 6.0 04:16:36 10° ESE 04:20:55 27° NE 04:25:16 10° N visible
30 Jan 4.0 05:54:56 10° S 06:00:11 73° WSW 06:05:31 10° NNW visible
30 Jan 5.0 18:01:24 10° NNE 18:05:52 27° E 18:10:17 10° SSE visible
30 Jan 4.4 19:40:43 10° NNE 19:45:58 65° WNW 19:51:11 10° SSW visible
30 Jan 6.6 21:21:28 10° N 21:24:46 17° NW 21:28:03 10° W visible
31 Jan 6.5 03:50:22 10° E 03:53:57 19° NE 03:57:35 10° N visible
31 Jan 4.2 05:27:37 10° SSE 05:32:53 75° ENE 05:38:11 10° NNW visible
31 Jan 5.2 07:08:59 10° SW 07:13:08 23° W 07:17:18 10° NW visible
31 Jan 5.5 17:34:43 10° NE 17:38:12 17° E 17:41:39 10° SE visible
31 Jan 4.0 19:13:22 10° NNE 19:18:42 84° ESE 19:23:59 10° SSW visible
31 Jan 6.2 20:53:43 10° N 20:57:50 24° NW 21:01:56 10° WSW visible
01 Feb 6.9 03:24:33 10° ENE 03:27:05 14° NE 03:29:38 10° NNE visible
01 Feb 4.9 05:00:36 10° SE 05:05:40 49° ENE 05:10:47 10° N visible
01 Feb 4.7 06:40:44 10° SSW 06:45:32 35° W 06:50:24 10° NNW visible
01 Feb 4.1 18:46:06 10° NNE 18:51:19 55° E 18:56:29 10° S visible
01 Feb 5.6 20:26:07 10° N 20:30:50 33° WNW 20:35:30 10° WSW visible
02 Feb 5.7 04:33:52 10° ESE 04:38:33 34° ENE 04:43:16 10° N visible
02 Feb 4.2 06:12:53 10° S 06:18:04 54° W 06:23:17 10° NNW visible
02 Feb 4.6 18:18:59 10° NNE 18:23:51 35° E 18:28:40 10° SSE visible
02 Feb 4.9 19:58:36 10° N 20:03:42 49° WNW 20:08:46 10° SW visible
02 Feb 6.9 21:39:46 10° NNW 21:42:16 14° NW 21:44:47 10° WNW visible
03 Feb 6.2 04:07:25 10° ESE 04:11:32 24° NE 04:15:40 10° N visible
03 Feb 4.0 05:45:24 10° SSE 05:50:41 83° WSW 05:56:02 10° NNW visible
03 Feb 5.2 17:52:04 10° NE 17:56:15 23° E 18:00:25 10° SE visible
03 Feb 4.2 19:31:11 10° NNE 19:36:30 74° WNW 19:41:45 10° SSW visible
03 Feb 6.5 21:11:49 10° N 21:15:24 19° NW 21:18:59 10° W visible
04 Feb 6.7 03:41:18 10° E 03:44:36 17° NE 03:47:54 10° N visible
04 Feb 4.4 05:18:11 10° SSE 05:23:24 65° ENE 05:28:40 10° NNW visible
04 Feb 5.0 06:59:07 10° SSW 07:03:32 26° W 07:07:59 10° NW visible
04 Feb 4.0 19:03:52 10° NNE 19:09:11 74° ESE 19:14:28 10° S visible
04 Feb 6.1 20:44:06 10° N 20:48:27 26° NW 20:52:45 10° WSW visible
05 Feb 7.0 03:15:42 10° ENE 03:17:45 12° NE 03:19:48 10° NNE visible
05 Feb 5.2 04:51:16 10° SE 04:56:13 43° ENE 05:01:13 10° N visible
05 Feb 4.5 06:31:01 10° SSW 06:35:58 40° W 06:40:59 10° NNW visible
05 Feb 4.3 18:36:39 10° NNE 18:41:47 47° E 18:46:51 10° S visible
05 Feb 5.4 20:16:32 10° N 20:21:24 38° WNW 20:26:12 10° SW visible
05 Feb 7.1 21:58:28 10° NNW 21:59:44 11° NW 22:01:00 10° NW visible
